This demonstration page uses our WeatherBlox Daily Observations layout. Learn more.

Left ArrowRight Arrow

39.01783, -85.05884

Hourly Observations for January 28, 2021

Temp ( °F °C ) Dew Point ( °F °C ) Humidity (%) Winds ( mph kmh ) Pressure ( in mb ) Visibility ( mi km ) Precip ( " mm )
12:52 am 00:52 Mostly Clear 23 -5 17 -8.3 78 78 NNW 10 17 30.39 1029 10 16 0.00 0.00
1:18 am 01:18 Mostly Cloudy 23 -5 17 -8.3 78 78 NW 8 13 30.44 1031 10 16 0.00 0.00
1:52 am 01:52 Partly Cloudy 24 -4.4 18 -7.8 77 77 NNW 12 19 30.40 1030 7 11 0.00 0.00
2:52 am 02:52 Mostly Clear 21 -6.1 16 -8.9 81 81 NNW 8 13 30.43 1031 10 16 0.00 0.00
3:52 am 03:52 Mostly Clear 20 -6.7 15 -9.4 81 81 NNW 8 13 30.45 1031 10 16 0.00 0.00
4:52 am 04:52 Mostly Cloudy 19 -7.2 15 -9.4 84 84 NW 6 9 30.47 1032 10 16 0.00 0.00
5:52 am 05:52 Mostly Cloudy 20 -6.7 15 -9.4 81 81 WNW 6 9 30.50 1033 10 16 0.00 0.00
6:52 am 06:52 Partly Cloudy 18 -7.8 14 -10 84 84 NW 7 11 30.51 1033 10 16 0.00 0.00
7:52 am 07:52 Mostly Sunny 19 -7.2 14 -10 81 81 WNW 9 15 30.55 1035 9 14 0.00 0.00
8:52 am 08:52 Mostly Cloudy 21 -6.1 16 -8.9 81 81 NW 8 13 30.56 1035 10 16 0.00 0.00
9:52 am 09:52 Mostly Cloudy 24 -4.4 16 -8.9 71 71 NW 9 15 30.58 1036 10 16 0.00 0.00
10:52 am 10:52 Cloudy 26 -3.3 16 -8.9 66 66 NNW 8 13 30.60 1036 10 16 0.00 0.00
11:52 am 11:52 Cloudy 26 -3.3 15 -9.4 63 63 NNW 8 13 30.60 1036 10 16 0.00 0.00
12:23 pm 12:23 Cloudy 26 -3.3 13 -10.6 57 57 N 9 15 30.63 1037 10 16 0.00 0.00
12:52 pm 12:52 Mostly Cloudy 27 -2.8 14 -10 58 58 N 13 20 30.59 1036 10 16 0.00 0.00
1:52 pm 13:52 Mostly Cloudy 28 -2.2 14 -10 56 56 NNW 12 19 30.56 1035 10 16 0.00 0.00
2:52 pm 14:52 Mostly Cloudy 29 -1.7 14 -10 54 54 N 10 17 30.57 1035 10 16 0.00 0.00
3:52 pm 15:52 Mostly Cloudy 29 -1.7 14 -10 54 54 NW 8 13 30.56 1035 10 16 0.00 0.00
4:52 pm 16:52 Mostly Cloudy 29 -1.7 15 -9.4 56 56 NW 8 13 30.55 1035 10 16 0.00 0.00
5:52 pm 17:52 Mostly Cloudy 27 -2.8 15 -9.4 61 61 WNW 9 15 30.58 1035 10 16 0.00 0.00
6:52 pm 18:52 Mostly Cloudy 26 -3.3 14 -10 60 60 NNW 7 11 30.57 1035 10 16 0.00 0.00
7:52 pm 19:52 Mostly Cloudy 26 -3.3 14 -10 60 60 NNW 5 7 30.56 1035 10 16 0.00 0.00
8:52 pm 20:52 Mostly Cloudy 25 -3.9 16 -8.9 69 69 WNW 3 6 30.55 1035 10 16 0.00 0.00
9:52 pm 21:52 Partly Cloudy 23 -5 14 -10 68 68 Calm 30.53 1034 10 16 0.00 0.00
10:52 pm 22:52 Clear 21 -6.1 14 -10 74 74 W 5 7 30.52 1034 10 16 0.00 0.00
11:52 pm 23:52 Clear 19 -7.2 14 -10 81 81 W 7 11 30.53 1034 10 16 0.00 0.00

Powered by AerisWeather